This demonstration page uses our WeatherBlox Daily Observations layout. Learn more.

38.88101, -77.10428

Hourly Observations for February 7, 2018

Temp ( °F °C ) Dew Point ( °F °C ) Humidity (%) Winds ( mph kmh ) Pressure ( in mb ) Visibility ( mi km ) Precip ( " mm )
12:52 am 00:52 Cloudy 34 1.1 25 -3.9 70 70 Calm 30.47 1032 10 16.0934 0 0
1:52 am 01:52 Cloudy 35 1.7 25 -3.9 67 67 ENE 6 9 30.46 1031 10 16.0934 0 0
2:52 am 02:52 Cloudy 35 1.7 22 -5.6 59 59 SE 7 11 30.45 1031 10 16.0934 0 0
3:52 am 03:52 Cloudy with Light Rain 34 1.1 25 -3.9 70 70 SE 7 11 30.42 1030 10 16.0934 0 0.0254
4:52 am 04:52 Cloudy with Light Rain 33 0.6 24 -4.4 70 70 SE 8 13 30.4 1029 10 16.0934 0 0.0254
5:52 am 05:52 Cloudy with Light Rain 33 0.6 26 -3.3 75 75 SE 7 11 30.37 1028 6 9.65604 0 0.0254
6:52 am 06:52 Cloudy 33 0.6 27 -2.8 78 78 VRB 3 6 30.33 1027 10 16.0934 0 0.0254
7:52 am 07:52 Cloudy 34 1.1 28 -2.2 79 79 ENE 5 7 30.29 1026 8 12.87472 0 0
8:08 am 08:08 Cloudy 34 1.1 28 -2.2 79 79 NE 6 9 30.3 1026 8 12.87472 0 0
8:52 am 08:52 Cloudy 34 1.1 29 -1.7 82 82 NNE 5 7 30.29 1026 7 11.26538 0 0
9:52 am 09:52 Cloudy 35 1.7 29 -1.7 78 78 NNE 5 7 30.24 1024 7 11.26538 0 0
10:52 am 10:52 Cloudy with Light Rain 34 1.1 30 -1.1 85 85 ENE 8 13 30.19 1022 3 4.82802 0 0.0254
11:15 am 11:15 Cloudy with Rain 35 1.7 31 -0.6 85 85 ESE 5 7 30.15 1021 2 3.21868 0.04 1.016
11:52 am 11:52 Cloudy with Light Rain 35 1.7 33 0.6 93 93 N 5 7 30.11 1020 2 3.21868 0.1 2.54
12:09 pm 12:09 Cloudy with Light Rain 35 1.7 32 0 89 89 N 5 7 30.09 1019 2 3.21868 0 0.0254
12:34 pm 12:34 Cloudy with Rain 35 1.7 33 0.6 93 93 Calm 30.06 1018 1.75 2.816345 0.03 0.762
12:52 pm 12:52 Cloudy with Rain 35 1.7 33 0.6 93 93 Calm 30.06 1018 1.5 2.41401 0.06 1.524
1:03 pm 13:03 Cloudy with Rain 35 1.7 33 0.6 93 93 Calm 30.03 1017 1.25 2.011675 0.04 1.016
1:52 pm 13:52 Cloudy with Light Rain 36 2.2 34 1.1 93 93 W 3 6 30.01 1016 1.5 2.41401 0.12 3.048
2:01 pm 14:01 Cloudy with Light Rain 36 2.2 34 1.1 93 93 SW 3 6 30 1016 2 3.21868 0 0.0254
2:22 pm 14:22 Cloudy with Light Rain 36 2.2 34 1.1 93 93 WNW 8 13 30 1016 3 4.82802 0.01 0.254
2:27 pm 14:27 Cloudy with Light Rain 36 2.2 34 1.1 93 93 VRB 6 9 30 1016 2.5 4.02335 0.01 0.254
2:31 pm 14:31 Cloudy with Light Rain 36 2.2 34 1.1 93 93 SW 3 6 30 1016 3 4.82802 0.01 0.254
2:52 pm 14:52 Cloudy with Light Rain 36 2.2 33 0.6 89 89 WSW 6 9 29.98 1015 4 6.43736 0.02 0.508
3:08 pm 15:08 Cloudy with Mist and Fog 36 2.2 34 1.1 93 93 W 3 6 29.97 1015 6 9.65604 0 0.0254
3:16 pm 15:16 Cloudy with Light Rain 36 2.2 34 1.1 93 93 WSW 5 7 29.97 1015 3 4.82802 0 0.0254
3:50 pm 15:50 Cloudy with Light Rain 36 2 36 2 100 100 SSW 5 7 29.97 1015 2.5 4.02335 0.02 0.508
3:52 pm 15:52 Cloudy with Light Rain 36 2.2 35 1.7 97 97 S 5 7 29.97 1015 3 4.82802 0.02 0.508
3:57 pm 15:57 Cloudy with Light Rain 36 2.2 35 1.7 97 97 S 3 6 29.97 1015 3 4.82802 0 0.0254
4:01 pm 16:01 Cloudy with Light Rain 36 2.2 35 1.7 97 97 SSE 5 7 29.97 1015 2.5 4.02335 0 0.0254
4:26 pm 16:26 Cloudy with Light Rain 36 2.2 35 1.7 97 97 S 8 13 29.97 1015 5 8.0467 0 0.0254
4:52 pm 16:52 Cloudy with Rain 37 2.8 36 2.2 96 96 W 7 11 29.98 1015 2 3.21868 0.03 0.762
5:01 pm 17:01 Cloudy with Heavy Rain 38 3.3 36 2.2 93 93 WNW 8 13 30 1016 1.5 2.41401 0.04 1.016
5:14 pm 17:14 Cloudy with Rain 39 3.9 38 3.3 96 96 NW 9 15 30 1016 2 3.21868 0.11 2.794
5:24 pm 17:24 Cloudy with Rain 39 3.9 37 2.8 93 93 WNW 9 15 30 1016 4 6.43736 0.13 3.302
5:45 pm 17:45 Cloudy with Light Rain 39 3.9 37 2.8 93 93 W 3 6 30 1016 10 16.0934 0.14 3.556
5:52 pm 17:52 Cloudy 39 3.9 37 2.8 93 93 WNW 5 7 30.01 1016 10 16.0934 0.14 3.556
6:52 pm 18:52 Cloudy 43 6.1 38 3.3 82 82 WNW 5 7 30.04 1017 10 16.0934 0 0.0254
7:52 pm 19:52 Cloudy 41 5 35 1.7 79 79 NNW 13 20 30.06 1018 10 16.0934 0 0.0254
8:52 pm 20:52 Cloudy 41 5 33 0.6 73 73 NNW 15 24 30.11 1020 10 16.0934 0 0
9:52 pm 21:52 Partly Cloudy 39 3.9 30 -1.1 70 70 NW 14 22 30.15 1021 10 16.0934 0 0
10:52 pm 22:52 Partly Cloudy 37 2.8 27 -2.8 67 67 NNW 16 26 30.19 1023 10 16.0934 0 0
11:52 pm 23:52 Partly Cloudy 35 1.7 25 -3.9 67 67 NNW 17 28 30.23 1024 10 16.0934 0 0

Powered by AerisWeather